[[{"header":{"parameterUnit":"m.s-1","parameterCategory":1,"la1":30.2991,"la2":30.254,"lo1":-89.0895,"lo2":-89.0444,"dy":0.0017,"dx":0.0017,"nx":28,"ny":28,"refTime":"2025-03-10T03:00:00:Z","depth":0,"parameterNumber":2,"parameterNumberName":"U-component_of_WINDS"},"data":[0,0,0,0,0,0,0,0,0,0,0,0,0,0,0,0,0,0,0,0,0,0,0,0,0,0,0,0,0,0,0,0,0,0,0,0,0,0,0,0,0,0,0,0,0,0,0,0,0,0,0,0,0,0,0,0,0,0,0.7006,0.7006,0,0.7024,0.7024,0.7025,0.7036,0.7036,0.7036,0.7036,0.7054,0.7055,0.7055,0,0,0,0,0,0,0,0,0,0,0,0,0,0.6979,0.6979,0.7006,0.7006,0.7006,0.7024,0.7024,0.7025,0.7036,0.7036,0.7036,0.7036,0.7054,0.7055,0.7055,0,0,0,0,0,0,0,0,0,0,0,0,0,0.6993,0.698,0.7006,0.7014,0.7015,0.7024,0.7024,0.7025,0.7036,0.7036,0.7036,0.7036,0.7054,0.7055,0.7055,0.7058,0,0,0.7057,0.7058,0,0,0,0,0,0,0,0,0.6992,0.6994,0.7012,0.7013,0.7014,0.7028,0.7022,0.7036,0.7036,0.7028,0.7036,0.7036,0.7045,0.7047,0.705,0.7058,0.7059,0.7057,0.7058,0.7058,0.7058,0,0,0,0,0,0,0,0.6991,0.6994,0.7013,0.7013,0.7014,0.7016,0.7019,0.7024,0.7036,0.7029,0.7029,0.7031,0.7046,0.7049,0.7051,0.706,0.7057,0.7058,0.7058,0.7059,0.7071,0.7071,0,0,0,0,0,0,0.6989,0.6993,0.7012,0.7014,0.7003,0.7017,0.7019,0.7023,0.7036,0.7038,0.7031,0.7032,0.7048,0.705,0.7051,0.7055,0.7058,0.7059,0.7059,0.7071,0.7071,0.7071,0,0,0,0,0,0,0.6989,0.6991,0.7012,0.7003,0.7006,0.7017,0.7022,0.7024,0.7027,0.7038,0.704,0.7033,0.7048,0.705,0.7056,0.7056,0.7059,0.7059,0.7071,0.7071,0.7071,0.7062,0,0,0,0,0,0,0.6988,0.6991,0.6992,0.7003,0.7007,0.7016,0.7022,0.7024,0.7028,0.7029,0.704,0.7042,0.7049,0.7055,0.7057,0.7057,0.706,0.7071,0.7071,0.7071,0.7062,0.7062,0.7061,0,0,0,0,0,0.6987,0.6988,0.6992,0.6994,0.7008,0.7016,0.7018,0.7026,0.7028,0.7029,0.7036,0.7041,0.7055,0.7055,0.7057,0.7058,0.7071,0.7071,0.7071,0.7063,0.7062,0.7061,0,0,0,0,0,0,0.6976,0.699,0.6994,0.6999,0.7007,0.7018,0.702,0.7025,0.7031,0.7032,0.7041,0.7044,0.7048,0.7054,0.7053,0.7061,0.7064,0.7064,0.7057,0.7056,0.7055,0.7054,0.7061,0,0,0,0,0,0.6974,0.698,0.6992,0.6995,0.6999,0.7009,0.7012,0.7018,0.7026,0.7029,0.7036,0.7043,0.7049,0.7053,0.7059,0.7063,0.7066,0.7064,0.7064,0.7063,0.7063,0.7065,0.7065,0.707,0.707,0.707,0,0,0.6971,0.6979,0.6982,0.6993,0.7,0.7005,0.7011,0.7016,0.702,0.7029,0.7035,0.7041,0.705,0.7055,0.7057,0.7059,0.7062,0.7063,0.7062,0.7063,0.7065,0.7065,0.7064,0.707,0.707,0.707,0,0,0.6967,0.6974,0.6978,0.6984,0.6994,0.7,0.7001,0.7012,0.7016,0.7022,0.7029,0.7034,0.7044,0.705,0.7054,0.7053,0.7058,0.7055,0.7051,0.7053,0.7053,0.7053,0.7052,0.7052,0.7055,0.7055,0.7055,0,0.6961,0.697,0.6979,0.6984,0.6989,0.6998,0.7001,0.7007,0.7018,0.7021,0.7023,0.7036,0.7042,0.7049,0.7048,0.7052,0.7053,0.7054,0.7052,0.7052,0.7052,0.7051,0.7051,0.7054,0.7054,0.7055,0.7055,0,0.6962,0.6968,0.697,0.6981,0.6986,0.699,0.6999,0.7003,0.7008,0.7015,0.7021,0.7029,0.7037,0.7039,0.7044,0.7046,0.7047,0.7051,0.7054,0.7051,0.705,0.705,0.7054,0.7054,0.7054,0.7054,0,0,0.6952,0.6968,0.6968,0.6973,0.6985,0.6989,0.6994,0.7002,0.7005,0.7012,0.7016,0.7025,0.7029,0.7033,0.7039,0.7041,0.704,0.7045,0.7045,0.7043,0.7042,0.7039,0.7039,0.7043,0.7043,0.7043,0.7042,0,0.695,0.6959,0.6967,0.6973,0.6978,0.6987,0.6991,0.6999,0.7005,0.701,0.7017,0.7023,0.7027,0.703,0.7032,0.7039,0.704,0.704,0.7047,0.7047,0.7044,0.7039,0.7036,0.7034,0.7042,0.7042,0.7042,0,0.6948,0.6955,0.6962,0.6973,0.6975,0.6979,0.6987,0.6992,0.7001,0.7005,0.7011,0.7017,0.7022,0.7025,0.7032,0.7032,0.7036,0.704,0.704,0.704,0.7044,0.7039,0.7034,0.7033,0.7041,0.7041,0.7041,0,0.6939,0.6951,0.6956,0.696,0.6973,0.6976,0.6981,0.699,0.6994,0.7001,0.7004,0.7012,0.7016,0.7021,0.7029,0.7031,0.7036,0.7039,0.7039,0.7039,0.7039,0.7039,0.7034,0.7042,0.7042,0.7042,0.7042,0,0.6936,0.6939,0.6953,0.6956,0.696,0.697,0.6974,0.698,0.6988,0.6992,0.7,0.7004,0.7015,0.702,0.7026,0.7031,0.7033,0.7037,0.7038,0.7036,0.7035,0.7038,0.7038,0.7042,0.7042,0.7042,0.7042,0,0.6927,0.6936,0.6942,0.6954,0.6957,0.696,0.697,0.6974,0.698,0.6986,0.6988,0.6998,0.7005,0.7014,0.7023,0.7027,0.7031,0.7034,0.7029,0.7029,0.7028,0.7028,0.7024,0.7024,0.7033,0.7033,0.7033,0,0.6924,0.6927,0.6939,0.6943,0.6948,0.6954,0.6959,0.6968,0.6973,0.6983,0.6985,0.6992,0.6999,0.7009,0.7017,0.7024,0.7027,0.7025,0.7028,0.7026,0.7027,0.7026,0.7027,0.7024,0.7024,0.7024,0.7024,0,0.6917,0.6921,0.6928,0.6936,0.6942,0.6948,0.6955,0.6958,0.6969,0.6974,0.6981,0.6986,0.6995,0.7003,0.7011,0.7016,0.7022,0.7023,0.7023,0.7021,0.7017,0.7019,0.7026,0.7023,0.7023,0.7023,0.7023,0.7023,0.6911,0.6914,0.6923,0.693,0.6937,0.6943,0.6947,0.6955,0.6961,0.697,0.6975,0.6982,0.699,0.7002,0.7007,0.7013,0.7015,0.7015,0.7015,0.7015,0.7014,0.7017,0.7014,0.7014,0.7014,0.7014,0.7014,0,0.6904,0.6911,0.6917,0.6927,0.6933,0.6938,0.6946,0.695,0.6956,0.6964,0.697,0.6978,0.6986,0.6995,0.7002,0.7005,0.7007,0.7006,0.7006,0.7007,0.7012,0.7011,0.7004,0.7004,0.7004,0.7004,0.7004,0.7004,0.6902,0.6907,0.6913,0.6922,0.6928,0.6935,0.6939,0.6946,0.6952,0.6961,0.6967,0.6973,0.6981,0.6989,0.6996,0.6998,0.7001,0.6999,0.7002,0.7006,0.7007,0.7008,0.7007,0.6999,0.6999,0.6997,0.6997,0.6997]},{"header":{"parameterUnit":"m.s-1","parameterCategory":1,"la1":30.2991,"la2":30.254,"lo1":-89.0895,"lo2":-89.0444,"dy":0.0017,"dx":0.0017,"nx":28,"ny":28,"refTime":"2025-03-10T03:00:00:Z","depth":0,"parameterNumber":3,"parameterNumberName":"V-component_of_WINDS"},"data":[0,0,0,0,0,0,0,0,0,0,0,0,0,0,0,0,0,0,0,0,0,0,0,0,0,0,0,0,0,0,0,0,0,0,0,0,0,0,0,0,0,0,0,0,0,0,0,0,0,0,0,0,0,0,0,0,0,0,-0.5303,-0.5304,0,-0.5407,-0.5408,-0.5409,-0.544,-0.5439,-0.5439,-0.5438,-0.5547,-0.555,-0.5554,0,0,0,0,0,0,0,0,0,0,0,0,0,-0.5134,-0.5137,-0.5303,-0.5304,-0.5306,-0.5407,-0.5408,-0.541,-0.544,-0.5439,-0.5438,-0.5438,-0.5546,-0.555,-0.5554,0,0,0,0,0,0,0,0,0,0,0,0,0,-0.5219,-0.5138,-0.5303,-0.5333,-0.5337,-0.5407,-0.5408,-0.541,-0.544,-0.5439,-0.5438,-0.5437,-0.5544,-0.5549,-0.5554,-0.5603,0,0,-0.557,-0.5572,0,0,0,0,0,0,0,0,-0.5214,-0.5226,-0.5327,-0.5331,-0.5335,-0.5409,-0.5388,-0.5475,-0.544,-0.5401,-0.5438,-0.5437,-0.5502,-0.5511,-0.5532,-0.5608,-0.5613,-0.5571,-0.5574,-0.5576,-0.5577,0,0,0,0,0,0,0,-0.5208,-0.5221,-0.5344,-0.5329,-0.5334,-0.5342,-0.5353,-0.5405,-0.5455,-0.5404,-0.5407,-0.5418,-0.5504,-0.5527,-0.5535,-0.5614,-0.557,-0.5575,-0.5578,-0.558,-0.5737,-0.5738,0,0,0,0,0,0,-0.5197,-0.5216,-0.5341,-0.5347,-0.5271,-0.5346,-0.5358,-0.5387,-0.5454,-0.5464,-0.5419,-0.5419,-0.5519,-0.5529,-0.5539,-0.5601,-0.5576,-0.5581,-0.5584,-0.5736,-0.5737,-0.5738,0,0,0,0,0,0,-0.5193,-0.5208,-0.5337,-0.5283,-0.53,-0.535,-0.5381,-0.5389,-0.5412,-0.5466,-0.5475,-0.5433,-0.5518,-0.5531,-0.5587,-0.5605,-0.5583,-0.5588,-0.5734,-0.5736,-0.5738,-0.5725,0,0,0,0,0,0,-0.5188,-0.5206,-0.5225,-0.5283,-0.5302,-0.5382,-0.5382,-0.5392,-0.542,-0.5422,-0.5481,-0.549,-0.5519,-0.5579,-0.5592,-0.5612,-0.5592,-0.5733,-0.5735,-0.5737,-0.5724,-0.5726,-0.5728,0,0,0,0,0,-0.5182,-0.5217,-0.5225,-0.524,-0.5326,-0.5383,-0.5395,-0.5426,-0.5422,-0.5441,-0.5476,-0.5488,-0.5601,-0.5584,-0.5599,-0.5621,-0.5732,-0.5735,-0.5737,-0.5724,-0.5726,-0.5728,0,0,0,0,0,0,-0.5161,-0.5225,-0.5235,-0.529,-0.5331,-0.5388,-0.5414,-0.5427,-0.5471,-0.5471,-0.5508,-0.5522,-0.5575,-0.5603,-0.5584,-0.5672,-0.5667,-0.5672,-0.5652,-0.5654,-0.5656,-0.5649,-0.5596,0,0,0,0,0,-0.5162,-0.5202,-0.5257,-0.53,-0.532,-0.5363,-0.5389,-0.541,-0.5454,-0.5472,-0.5511,-0.5554,-0.5599,-0.5628,-0.5673,-0.5728,-0.5743,-0.5751,-0.5752,-0.5754,-0.5758,-0.5791,-0.5796,-0.5746,-0.5746,-0.5746,0,0,-0.5166,-0.5206,-0.523,-0.5297,-0.5331,-0.5373,-0.5378,-0.5422,-0.5454,-0.5479,-0.5534,-0.5563,-0.5614,-0.567,-0.5697,-0.5696,-0.5775,-0.5757,-0.5757,-0.5762,-0.5794,-0.5799,-0.5803,-0.5748,-0.5748,-0.5747,0,0,-0.5195,-0.5229,-0.5269,-0.5303,-0.5354,-0.5383,-0.5392,-0.5448,-0.5469,-0.5524,-0.5544,-0.5583,-0.566,-0.5696,-0.5724,-0.5766,-0.578,-0.578,-0.579,-0.5822,-0.5826,-0.5829,-0.5846,-0.5851,-0.5784,-0.5784,-0.5784,0,-0.5193,-0.5257,-0.5288,-0.5331,-0.5361,-0.5385,-0.5427,-0.5458,-0.5522,-0.5542,-0.554,-0.5637,-0.5673,-0.5739,-0.5749,-0.577,-0.5784,-0.5774,-0.5822,-0.5826,-0.583,-0.5847,-0.5853,-0.5784,-0.5784,-0.5784,-0.5784,0,-0.5253,-0.5297,-0.5323,-0.5383,-0.5416,-0.5458,-0.5497,-0.5526,-0.5544,-0.5573,-0.563,-0.5673,-0.5728,-0.5744,-0.5762,-0.5813,-0.5811,-0.5815,-0.581,-0.5834,-0.585,-0.5857,-0.5783,-0.5783,-0.5784,-0.5784,0,0,-0.5272,-0.5349,-0.5358,-0.5386,-0.5445,-0.548,-0.5523,-0.5576,-0.5601,-0.5644,-0.5683,-0.5747,-0.5751,-0.5783,-0.5806,-0.5833,-0.5866,-0.5834,-0.5836,-0.584,-0.5926,-0.5924,-0.593,-0.5875,-0.5876,-0.5877,-0.5922,0,-0.5309,-0.5387,-0.5417,-0.5482,-0.5523,-0.5546,-0.5585,-0.5626,-0.5654,-0.5694,-0.5726,-0.5771,-0.5773,-0.5792,-0.5821,-0.5856,-0.5884,-0.5853,-0.5913,-0.5915,-0.5901,-0.5938,-0.5936,-0.5976,-0.5929,-0.593,-0.593,0,-0.5363,-0.5406,-0.5475,-0.5529,-0.5547,-0.5581,-0.5632,-0.567,-0.5717,-0.5736,-0.5771,-0.5792,-0.584,-0.5832,-0.5899,-0.5877,-0.5903,-0.5924,-0.5927,-0.5935,-0.5925,-0.5949,-0.599,-0.5996,-0.594,-0.594,-0.5939,0,-0.5372,-0.5447,-0.5498,-0.5521,-0.5585,-0.5609,-0.5637,-0.5683,-0.5713,-0.5757,-0.5778,-0.5827,-0.5855,-0.5894,-0.5928,-0.5918,-0.5993,-0.5987,-0.6011,-0.601,-0.6027,-0.6025,-0.6074,-0.6041,-0.6041,-0.6041,-0.6041,0,-0.5411,-0.5452,-0.5503,-0.5534,-0.5582,-0.5615,-0.5662,-0.5692,-0.5732,-0.5771,-0.5794,-0.583,-0.5872,-0.5914,-0.5941,-0.5993,-0.6005,-0.6023,-0.603,-0.6022,-0.602,-0.6041,-0.6039,-0.6042,-0.6042,-0.6042,-0.6041,0,-0.5429,-0.5464,-0.5521,-0.5577,-0.5592,-0.5625,-0.5674,-0.5706,-0.5735,-0.5784,-0.5797,-0.5843,-0.5894,-0.5931,-0.5996,-0.6014,-0.6071,-0.6077,-0.6055,-0.6059,-0.6081,-0.6079,-0.6146,-0.6157,-0.6115,-0.6116,-0.6116,0,-0.5452,-0.5485,-0.5544,-0.5571,-0.5599,-0.5642,-0.5673,-0.5708,-0.5739,-0.5795,-0.5821,-0.5872,-0.5916,-0.5996,-0.6036,-0.6086,-0.6095,-0.6115,-0.6103,-0.6094,-0.6097,-0.6095,-0.61,-0.6117,-0.6117,-0.6117,-0.6118,0,-0.549,-0.5506,-0.5549,-0.5598,-0.5634,-0.5674,-0.5715,-0.5737,-0.5779,-0.5813,-0.5864,-0.5898,-0.5965,-0.6016,-0.6071,-0.6101,-0.6117,-0.6121,-0.6129,-0.6122,-0.6108,-0.6118,-0.6061,-0.6119,-0.6119,-0.6119,-0.6119,-0.6119,-0.5513,-0.5543,-0.559,-0.5637,-0.5671,-0.5709,-0.5743,-0.5776,-0.5819,-0.5875,-0.5893,-0.5947,-0.5995,-0.6069,-0.61,-0.6143,-0.6143,-0.6155,-0.6158,-0.6161,-0.6161,-0.61,-0.6153,-0.6153,-0.6153,-0.6153,-0.6153,0,-0.5554,-0.5585,-0.5628,-0.5684,-0.5722,-0.5732,-0.5778,-0.5809,-0.5856,-0.5898,-0.594,-0.6,-0.605,-0.6094,-0.6147,-0.6173,-0.6182,-0.6186,-0.6186,-0.6193,-0.6158,-0.6146,-0.6178,-0.6178,-0.6178,-0.6178,-0.6178,-0.6178,-0.558,-0.5632,-0.5653,-0.5723,-0.5754,-0.5806,-0.5832,-0.5868,-0.5902,-0.5967,-0.6009,-0.6037,-0.608,-0.6136,-0.6184,-0.6195,-0.6214,-0.6217,-0.6231,-0.6198,-0.6195,-0.6192,-0.6181,-0.622,-0.622,-0.6262,-0.6263,-0.6263]}]]